This demonstration page uses our WeatherBlox Daily Observations layout. Learn more.

Left ArrowRight Arrow

39.95238, -75.16362

Hourly Observations for May 20, 2018

Temp ( °F °C ) Dew Point ( °F °C ) Humidity (%) Winds ( mph kmh ) Pressure ( in mb ) Visibility ( mi km ) Precip ( " mm )
12:03 am 00:03 Mostly Cloudy 68 20 67 19.4 96 96 S 9 15 30.03 1017 10 16 0.00 0.00
12:35 am 00:35 Cloudy 69 20.6 67 19.4 93 93 SSW 10 17 30.03 1017 10 16 0.00 0.00
12:54 am 00:54 Cloudy 69 20.6 67 19.4 93 93 SSW 10 17 30.03 1017 10 16 0.00 0.00
1:03 am 01:03 Cloudy 69 20.6 67 19.4 93 93 S 12 19 30.03 1017 10 16 0.00 0.00
1:40 am 01:40 Cloudy 70 21.1 68 20 93 93 SSW 15 24 30.03 1017 10 16 0.00 0.00
1:54 am 01:54 Cloudy 69 20.6 68 20 96 96 SSW 14 22 30.01 1016 10 16 0.00 0.00
2:54 am 02:54 Cloudy 70 21.1 68 20 93 93 SSW 12 19 30.01 1016 10 16 0.00 0.00
3:20 am 03:20 Cloudy with Light Rain 69 20.6 68 20 96 96 SSW 15 24 30.00 1016 9 14 0.00 0.03
3:54 am 03:54 Cloudy 70 21.1 67 19.4 90 90 SSW 14 22 29.99 1016 9 14 0.00 0.03
4:24 am 04:24 Cloudy 70 21.1 68 20 93 93 SSW 14 22 30.00 1016 10 16 0.00 0.03
4:42 am 04:42 Cloudy 70 21.1 68 20 93 93 SSW 13 20 29.97 1015 10 16 0.00 0.03
4:54 am 04:54 Cloudy 70 21.1 67 19.4 90 90 SSW 13 20 29.98 1015 10 16 0.00 0.03
5:54 am 05:54 Cloudy 70 21.1 67 19.4 90 90 SSW 13 20 29.98 1015 10 16 0.00 0.00
6:54 am 06:54 Cloudy 70 21.1 67 19.4 90 90 SW 12 19 29.99 1016 10 16 0.00 0.00
7:25 am 07:25 Cloudy with Light Rain 70 21.1 67 19.4 90 90 SW 13 20 30.00 1016 7 11 0.00 0.03
7:52 am 07:52 Cloudy 70 21 68 20 94 94 SW 12 19 30.00 1016 10 16 0.01 0.25
8:54 am 08:54 Cloudy 71 21.7 68 20 90 90 SW 13 20 30.00 1016 10 16 0.00 0.00
9:29 am 09:29 Mostly Cloudy 73 22.8 69 20.6 87 87 WSW 16 26 30.00 1016 10 16 0.00 0.00
9:54 am 09:54 Cloudy 73 22.8 69 20.6 87 87 WSW 17 28 30.00 1016 10 16 0.00 0.00
10:25 am 10:25 Partly Cloudy 75 23.9 68 20 79 79 WSW 16 26 30.00 1016 10 16 0.00 0.00
10:44 am 10:44 Mostly Cloudy 77 25 68 20 74 74 WSW 15 24 30.00 1016 10 16 0.00 0.00
10:54 am 10:54 Mostly Cloudy 76 24.4 68 20 77 77 WSW 18 30 29.99 1016 10 16 0.00 0.00
11:04 am 11:04 Mostly Cloudy 77 25 68 20 74 74 WSW 16 26 30.00 1016 10 16 0.00 0.00
11:54 am 11:54 Mostly Cloudy 79 26.1 68 20 69 69 WSW 17 28 29.99 1016 10 16 0.00 0.00
12:54 pm 12:54 Mostly Cloudy 80 26.7 67 19.4 64 64 WSW 12 19 29.97 1015 10 16 0.00 0.00
1:54 pm 13:54 Mostly Cloudy 81 27.2 65 18.3 58 58 NW 17 28 29.97 1015 10 16 0.00 0.00
2:54 pm 14:54 Mostly Cloudy 81 27.2 64 17.8 57 57 WNW 12 19 29.97 1015 10 16 0.00 0.03
3:54 pm 15:54 Mostly Cloudy 82 27.8 64 17.8 55 55 W 13 20 29.97 1015 10 16 0.00 0.00
4:54 pm 16:54 Mostly Cloudy 83 28.3 63 17.2 51 51 W 16 26 29.97 1015 10 16 0.00 0.00
5:54 pm 17:54 Mostly Cloudy 82 27.8 63 17.2 53 53 WNW 14 22 29.97 1015 10 16 0.00 0.00
6:54 pm 18:54 Mostly Cloudy 82 27.8 62 16.7 51 51 WNW 14 22 29.98 1015 10 16 0.00 0.00
7:54 pm 19:54 Mostly Cloudy 78 25.6 61 16.1 56 56 NNW 9 15 30.00 1016 10 16 0.00 0.00
8:54 pm 20:54 Mostly Cloudy 76 24.4 62 16.7 62 62 NNW 6 9 30.02 1017 10 16 0.00 0.00
9:54 pm 21:54 Clear 73 22.8 62 16.7 69 69 N 12 19 30.04 1017 10 16 0.00 0.00
10:54 pm 22:54 Mostly Clear 72 22.2 60 15.6 66 66 N 12 19 30.06 1018 10 16 0.00 0.00
11:54 pm 23:54 Partly Cloudy 69 20.6 58 14.4 68 68 N 9 15 30.08 1019 10 16 0.00 0.00

Powered by AerisWeather